Lid_Strength_Index
3 6 5 8 14 15 17 15 13 13 11 9 10 7 8 8 9 11 2 1 1 1 -0 -0 -1 -1 -1 -1 -1 -1 -1 -1 -1 -1 -1 -1 -1 -1 -1 -1 -1 -1 -1 -1 -1 -1 -2 -2 -2
6 6 7 10 15 17 16 14 14 13 10 8 11 9 8 8 5 5 4 1 0 0 -0 -0 -1 -1 -1 -1 -1 -1 -1 -1 -1 -1 -1 -1 -1 -1 -1 -1 -1 -1 -1 -1 -1 -2 -2 -3 -2
8 6 10 12 15 16 15 12 12 11 9 9 10 7 7 8 5 4 2 1 0 0 -0 -0 -1 -1 -1 -1 -1 -1 -1 -1 -1 -1 -1 -1 -1 -1 -1 -1 -1 -1 -1 -1 -2 -2 -3 -3 -2
9 9 10 14 15 12 12 11 9 10 9 8 7 9 8 6 7 2 1 0 1 0 -0 -0 -1 -1 -1 -1 -1 -1 -1 -1 -1 -1 -1 -1 -1 -1 -1 -1 -1 -2 -1 -1 -2 -2 -2 -2 -2
9 10 14 15 14 11 10 9 9 10 10 10 8 9 8 6 2 1 1 1 1 1 -0 -0 -1 -1 -1 -1 -1 -1 -1 -1 -1 -1 -1 -1 -1 -1 -1 -1 -1 -2 -2 -2 -2 -2 -3 -3 -3
11 11 15 16 13 10 10 9 9 9 10 9 10 8 8 6 3 2 1 1 0 1 0 -0 -1 -1 -1 -1 -1 -1 -1 -1 -1 -1 -1 -1 -1 -1 -1 -1 -1 -1 -2 -2 -2 -3 -3 -2 -2
10 12 15 14 13 11 10 8 9 10 10 9 9 9 8 6 6 2 1 1 0 0 0 0 -0 -0 -1 -1 -1 -1 -1 -1 -1 -1 -1 -1 -1 -1 -1 -1 -1 -1 -2 -2 -2 -3 -3 -2 -2
10 11 14 13 12 11 8 9 9 9 9 8 7 10 10 7 5 2 2 1 1 1 0 0 0 -0 -0 -0 -1 -1 -1 -1 -1 -1 -1 -1 -1 -1 -1 -1 -1 -1 -2 -2 -2 -2 -2 -2 -2
9 13 15 13 11 10 8 9 9 8 9 9 8 9 7 6 2 2 3 2 2 1 1 0 0 -0 -0 -0 -0 -1 -1 -1 -1 -1 -1 -0 -0 -0 -1 -1 -1 -1 -2 -2 -2 -2 -2 -2 -2
11 14 13 10 9 9 9 9 9 9 10 10 9 7 6 5 3 4 4 4 3 2 1 1 0 0 0 -0 -0 -0 -0 -0 -0 -0 -0 -0 -0 -0 -0 -1 -1 -1 -2 -2 -2 -2 -2 -2 -1
12 14 11 10 8 8 9 9 8 9 10 10 10 9 7 7 7 4 4 3 3 2 1 1 0 0 0 0 -0 -0 -0 -0 -0 -0 -0 0 -0 -0 -0 -0 -0 -0 -1 -0 -1 -1 -1 -1 -1
13 11 10 10 9 9 9 8 9 8 8 7 8 8 8 8 7 5 4 3 3 2 2 1 0 0 1 0 0 -0 0 -0 -0 -0 -0 0 -0 -0 -0 -0 -0 -0 -0 -0 -0 -0 -1 -1 -1
13 12 11 10 10 11 9 10 9 9 7 6 7 8 8 8 7 6 5 3 2 3 2 1 1 1 0 1 0 0 0 -0 -0 -0 -0 -0 -0 0 -0 -0 -0 -0 -0 -0 -0 -0 1 1 0
12 12 11 11 10 10 10 10 11 9 7 7 7 9 9 7 7 7 7 5 3 2 2 1 1 0 0 0 0 0 0 -0 -0 -0 -0 -0 -0 -0 0 0 0 -0 -0 -0 -0 -0 1 2 2
11 13 12 11 11 11 10 12 11 9 8 8 7 8 8 6 6 6 6 4 3 2 2 2 1 1 1 1 0 0 0 -0 0 0 0 -0 0 1 0 0 0 -0 -0 -0 0 0 1 1 2
13 14 16 13 11 10 11 14 10 9 9 9 8 7 7 9 6 6 6 5 2 2 2 1 1 1 1 1 0 0 0 0 0 1 0 -0 0 1 1 1 0 -0 -0 -0 0 1 1 2 2
16 18 17 14 12 12 12 14 10 9 10 10 9 9 8 7 8 6 6 6 3 3 2 2 1 1 1 1 0 0 0 0 0 1 1 1 0 0 1 1 0 -0 -0 0 1 1 1 2 2
17 17 16 15 12 12 13 13 11 10 9 9 10 10 9 8 7 7 6 6 4 3 3 2 2 1 1 1 1 2 1 1 0 0 1 1 1 0 2 2 1 -0 0 0 0 1 1 2 2
14 15 15 13 10 13 13 12 11 10 10 11 10 10 10 9 7 7 7 5 3 2 2 2 2 2 2 2 2 2 2 1 1 1 -0 0 -0 -0 -0 1 2 0 1 1 1 1 1 2 2
13 15 15 13 11 12 12 13 11 11 10 10 10 9 9 9 8 7 4 4 3 3 2 3 2 2 2 1 1 1 1 1 1 0 0 -0 -0 -0 0 0 0 0 1 1 1 1 2 3 2
14 15 14 14 11 11 12 14 12 11 10 8 8 8 9 8 9 8 4 4 3 4 4 3 2 2 2 2 3 3 3 2 2 1 1 0 -0 -0 -0 0 0 0 0 1 1 2 3 3 3
15 11 11 11 13 16 12 17 13 11 11 9 9 9 9 9 8 8 6 4 4 4 5 5 4 4 3 2 3 3 4 4 2 2 1 1 0 0 -0 0 0 0 0 1 1 1 1 2 3
12 9 10 12 14 16 15 17 14 12 12 11 9 8 8 8 8 7 7 5 3 4 5 4 4 6 6 4 3 4 5 4 3 3 3 2 2 1 1 0 0 0 0 1 1 1 1 1 2
8 10 11 14 16 18 14 15 14 12 12 11 9 8 6 7 8 8 7 6 3 4 5 4 6 7 7 6 5 4 4 4 4 4 3 3 2 1 1 1 1 1 1 1 1 1 1 1 1
10 13 17 20 19 18 13 16 13 11 10 10 9 7 7 8 7 8 9 8 5 4 4 4 5 6 4 3 2 2 2 2 3 3 3 3 2 2 1 1 1 1 0 0 1 1 1 1 1
13 13 18 22 21 18 14 17 13 9 8 7 7 8 7 7 8 7 8 7 5 3 3 4 4 4 3 3 3 3 2 2 2 2 2 2 2 2 1 1 0 0 0 0 0 0 1 1 1
14 16 13 17 16 19 17 14 10 9 8 8 8 7 8 8 7 7 7 7 5 4 4 4 4 4 3 2 3 3 2 2 2 2 2 2 2 1 1 0 0 0 0 0 0 1 1 1 1
12 10 17 16 21 22 18 17 16 12 11 9 9 8 8 7 7 6 6 7 6 6 6 5 4 4 3 3 3 2 3 2 2 2 2 2 1 1 1 1 0 0 0 0 0 1 1 1 1
13 15 14 14 16 21 21 18 11 12 10 9 9 8 8 8 7 7 6 6 6 8 7 5 5 5 4 3 3 2 2 2 2 2 2 2 1 1 1 1 1 1 1 1 1 1 1 1 1
11 12 13 18 19 16 17 17 9 9 9 8 8 7 7 7 6 6 5 5 5 5 6 6 5 5 5 4 3 3 2 2 3 2 2 2 1 1 1 1 1 1 1 1 1 1 1 1 2